Hourly Data Report for September 20, 2006

TORONTO CITY
ONTARIO

43°40'00.000" N
79°24'00.000" W
112.50 m
6158355
71508
XTO

Download Data

Hourly Data (September 2006)
Hourly Data Report for September 20, 2006
TIME
LST
Temp Definition
°C
Dew Point Definition
°C
Rel Hum Definition
%
Precip. Amount Definition
mm

Wind Dir Definition
10's deg

Wind Spd Definition
km/h
Visibility Definition
km
Stn Press Definition
kPa
Hmdx Definition


Wind Chill Definition


Weather Definition


00:00 14.7 10.5 76   LegendMM LegendMM   99.33     LegendNANA
01:00 14.1 10.6 79   LegendMM LegendMM   99.30     LegendNANA
02:00 13.5 10.3 81   LegendMM LegendMM   99.31     LegendNANA
03:00 13.4 10.0 80   LegendMM LegendMM   99.28     LegendNANA
04:00 13.3 9.9 80   LegendMM LegendMM   99.28     LegendNANA
05:00 13.1 10.0 81   LegendMM LegendMM   99.30     LegendNANA
06:00 13.0 9.5 79   LegendMM LegendMM   99.33     LegendNANA
07:00 12.9 9.7 81   LegendMM LegendMM   99.38     LegendNANA
08:00 13.0 9.7 80   LegendMM LegendMM   99.40     LegendNANA
09:00 13.7 9.3 75   LegendMM LegendMM   99.41     LegendNANA
10:00 14.5 8.6 68   LegendMM LegendMM   99.43     LegendNANA
11:00 13.0 9.7 80   LegendMM LegendMM   99.50     LegendNANA
12:00 13.8 8.5 70   LegendMM LegendMM   99.52     LegendNANA
13:00 13.8 7.8 67   LegendMM LegendMM   99.58     LegendNANA
14:00 13.9 7.8 67   LegendMM LegendMM   99.62     LegendNANA
15:00 14.5 6.7 59   LegendMM LegendMM   99.65     LegendNANA
16:00 14.8 4.4 50   LegendMM LegendMM   99.68     LegendNANA
17:00 13.3 2.9 49   LegendMM LegendMM   99.79     LegendNANA
18:00 12.8 4.0 55   LegendMM LegendMM   99.86     LegendNANA
19:00 12.0 5.0 62   LegendMM LegendMM   99.91     LegendNANA
20:00 11.5 5.1 65   LegendMM LegendMM   99.99     LegendNANA
21:00 10.7 5.6 71   LegendMM LegendMM   100.03     LegendNANA
22:00 10.7 6.0 73   LegendMM LegendMM   100.05     LegendNANA
23:00 10.0 6.0 76   LegendMM LegendMM   100.09     LegendNANA

Notes on Data Quality.

Legend

  • E = Estimated
  • M = Missing
  • NA = Not Available*
  • [empty] = Indicates an unobserved value
Date modified: